Regional Weather Roundup
Issued by NWS

Home | Current Version | Previous Version | Text Only | Print | Product List | Glossary On
Versions: 1 2 3 4 5 6 7 8 9 10 11 12 13 14 15 16 17 18 19 20 21 22 23 24 25 26 27 28 29 30 31 32 33 34 35 36 37 38 39 40 41 42 43 44 45 46 47 48 49 50
000
ASUS46 KPQR 290910
RWROR

OREGON REGIONAL WEATHER ROUNDUP
NATIONAL WEATHER SERVICE PORTLAND OR
200 AM PDT MON AUG 29 2016

NOTE: "FAIR" INDICATES FEW OR NO CLOUDS BELOW 12,000 FEET WITH
NO SIGNIFICANT WEATHER AND/OR OBSTRUCTIONS TO VISIBILITY.

ORZ001>013-291000-
NORTHWEST OREGON


CITY           SKY/WX    TMP DP  RH WIND       PRES   REMARKS
ASTORIA        CLEAR     54  50  86 SE3       30.07S
NEWPORT        CLOUDY    54  54 100 S3        30.12S
PORTLAND       MOCLDY    63  53  70 NW6       30.03S
VANCOUVER WA   PTCLDY    63  53  70 CALM      30.02S
SCAPPOOSE      PTCLDY    63  52  67 N6        30.02S
HILLSBORO      PTCLDY    61  53  75 NW5       30.03R
AURORA         PTCLDY    59  52  77 S3        30.05R
MCMINNVILLE    PTCLDY    58  51  78 SW10      30.05R
SALEM          PTCLDY    60  51  72 CALM      30.04S
CORVALLIS        N/A     55  52  88 W13       30.07S
EUGENE         CLEAR     55  51  86 SW7       30.07S
$$

ORZ021-028-291000-
SOUTHWEST OREGON


CITY           SKY/WX    TMP DP  RH WIND       PRES   REMARKS
NORTH BEND     CLOUDY    54  52  94 CALM      30.12S
BROOKINGS      CLOUDY    53  51  93 VRB5      30.12R
ROSEBURG       CLEAR     63  53  70 NW3       30.06S
SEXTON SUMMIT  CLEAR     64  33  31 SW6       30.15S
MEDFORD        CLOUDY    70  45  40 CALM      30.04S
$$

ORZ014>016-041-291000-
COLUMBIA GORGE


CITY           SKY/WX    TMP DP  RH WIND       PRES   REMARKS
TROUTDALE      PTCLDY    60  51  72 CALM      30.02S
THE DALLES     PTCLDY    69  49  48 NW7       29.99R
$$

ORZ029>031-041-044-049-050-061>064-502-503-505>511-291000-
EASTERN OREGON


CITY           SKY/WX    TMP DP  RH WIND       PRES   REMARKS
REDMOND        MOCLDY    60  44  55 S5        30.10S
BEND           PTCLDY    61  45  55 CALM      30.12S
PRINEVILLE     PTCLDY    63  46  55 CALM      30.10S
KLAMATH FALLS  CLEAR     52  40  63 SE5       30.18S
LAKEVIEW       PTCLDY    55  21  26 SE14      30.24S
HERMISTON      PTCLDY    61  44  53 S5        29.98R
PENDLETON      PTCLDY    63  39  41 SE7       30.01R
JOHN DAY       PTCLDY    67  42  40 SW7       30.13R
MEACHAM        CLEAR     48  36  63 CALM      30.13S
LA GRANDE      CLEAR     61  36  39 CALM      30.08S
BAKER CITY     PTCLDY    51  44  77 NW5       30.12S
BURNS          PTCLDY    52  32  46 W3        30.14R
ROME             N/A     68  22  17 SE12      30.12S
ONTARIO        CLEAR     61  48  62 W8        30.05R
$$



USA.gov is the U.S. government's official web portal to all federal, state and local government web resources and services.